[[{"header":{"parameterUnit":"m.s-1","parameterCategory":1,"la1":30.2991,"la2":30.254,"lo1":-89.0895,"lo2":-89.0444,"dy":0.0017,"dx":0.0017,"nx":28,"ny":28,"refTime":"2025-06-08T21:00:00:Z","depth":0,"parameterNumber":2,"parameterNumberName":"U-component_of_WINDS"},"data":[0,0,0,0,0,0,0,0,0,0,0,0,0,0,0,0,0,0,0,0,0,0,0,0,0,0,0,0,0,0,0,0,0,0,0,0,0,0,0,0,0,0,0,0,0,0,0,0,0,0,0,0,0,0,0,0,0,0,5.3101,5.3102,0,5.3197,5.3199,5.32,5.3064,5.3059,5.3054,5.3049,5.315,5.3157,5.3164,0,0,0,0,0,0,0,0,0,0,0,0,0,5.2799,5.2805,5.3101,5.3102,5.3103,5.3197,5.3199,5.32,5.3065,5.3059,5.3053,5.3047,5.3148,5.3156,5.3165,0,0,0,0,0,0,0,0,0,0,0,0,0,5.2916,5.2807,5.3101,5.3047,5.3043,5.3197,5.3199,5.32,5.3066,5.3058,5.3051,5.3044,5.3145,5.3155,5.3166,5.3378,0,0,5.3199,5.3204,0,0,0,0,0,0,0,0,5.291,5.2928,5.3054,5.3051,5.3047,5.3111,5.3129,5.326,5.3068,5.3057,5.3049,5.3041,5.3143,5.3154,5.3188,5.3382,5.3387,5.32,5.3206,5.3211,5.3214,0,0,0,0,0,0,0,5.2902,5.2923,5.3139,5.3056,5.3052,5.3018,5.3027,5.3153,5.314,5.3058,5.3048,5.3061,5.314,5.3178,5.3189,5.3388,5.32,5.3209,5.3216,5.322,5.3756,5.3764,0,0,0,0,0,0,5.29,5.2917,5.3136,5.3142,5.2959,5.3029,5.3039,5.3098,5.3138,5.3137,5.3067,5.3054,5.3163,5.3177,5.3192,5.3437,5.3211,5.3221,5.3227,5.3749,5.3758,5.3766,0,0,0,0,0,0,5.2894,5.2921,5.3132,5.3027,5.3051,5.3042,5.3109,5.3104,5.3141,5.3145,5.3142,5.3108,5.3158,5.3177,5.3331,5.3439,5.3226,5.3236,5.3739,5.3751,5.3762,5.3934,0,0,0,0,0,0,5.2886,5.292,5.3,5.303,5.3057,5.327,5.3116,5.3111,5.316,5.3144,5.3183,5.3182,5.3153,5.3316,5.3342,5.345,5.3244,5.3729,5.3745,5.3758,5.3918,5.395,5.3977,0,0,0,0,0,5.2876,5.3046,5.3005,5.3032,5.3157,5.3277,5.3292,5.3255,5.3169,5.3249,5.3251,5.3181,5.3425,5.3333,5.3361,5.3474,5.3722,5.374,5.3757,5.3905,5.3944,5.3976,0,0,0,0,0,0,5.303,5.3049,5.3003,5.3188,5.3232,5.3253,5.3353,5.3298,5.3367,5.3349,5.3301,5.3311,5.3475,5.3491,5.3388,5.3679,5.3559,5.3583,5.3662,5.3698,5.3727,5.3718,5.3253,0,0,0,0,0,5.3086,5.3181,5.3192,5.3354,5.3378,5.3363,5.3413,5.3381,5.3424,5.3442,5.3455,5.3501,5.3586,5.3644,5.3724,5.3922,5.3926,5.4013,5.4043,5.4067,5.4086,5.4187,5.4225,5.3824,5.3824,5.3823,0,0,5.3201,5.3223,5.3286,5.3386,5.3415,5.3514,5.3379,5.349,5.3562,5.3459,5.3603,5.3616,5.3663,5.3838,5.3916,5.3856,5.4199,5.4089,5.4108,5.4115,5.4209,5.4247,5.4281,5.3836,5.3834,5.3832,0,0,5.3461,5.3489,5.3624,5.3657,5.3703,5.3691,5.3724,5.3755,5.3758,5.3903,5.3826,5.3912,5.4063,5.4097,5.4135,5.4407,5.4343,5.4435,5.4586,5.4685,5.4716,5.4744,5.4836,5.487,5.4456,5.4456,5.4456,0,5.3598,5.3743,5.3701,5.3816,5.386,5.3772,5.3907,5.3941,5.4012,5.4045,5.3977,5.4161,5.4187,5.4367,5.4433,5.4469,5.4502,5.4428,5.4715,5.4743,5.4768,5.4855,5.489,5.4467,5.4465,5.4464,5.4463,0,5.3907,5.4009,5.4113,5.4181,5.4238,5.4364,5.434,5.4403,5.4366,5.4361,5.4508,5.4536,5.4617,5.4659,5.4626,5.4834,5.4795,5.4723,5.46,5.4817,5.4897,5.4931,5.4481,5.4478,5.4475,5.4472,0,0,5.4264,5.4307,5.4345,5.4373,5.4418,5.4495,5.4617,5.4695,5.4748,5.4801,5.4898,5.5027,5.4959,5.5002,5.4972,5.506,5.5267,5.4975,5.4976,5.5024,5.5492,5.5542,5.5582,5.5227,5.5233,5.5238,5.5486,0,5.4518,5.4724,5.469,5.489,5.4981,5.4899,5.5003,5.5041,5.5041,5.5118,5.5117,5.5207,5.5114,5.5138,5.5222,5.5224,5.5359,5.5206,5.5314,5.5318,5.5298,5.5625,5.5679,5.5912,5.5518,5.5524,5.5528,0,5.4842,5.4903,5.5112,5.5139,5.5176,5.5271,5.5338,5.5414,5.5456,5.5449,5.5496,5.5449,5.5568,5.5447,5.5608,5.5505,5.5548,5.5556,5.5564,5.5568,5.5432,5.5632,5.5986,5.6019,5.5578,5.5574,5.5571,0,5.5074,5.521,5.5351,5.5379,5.5415,5.5483,5.5501,5.5535,5.5584,5.5644,5.5674,5.5749,5.5789,5.5847,5.582,5.5736,5.5985,5.5864,5.5979,5.598,5.6031,5.6027,5.6391,5.6069,5.6068,5.6068,5.6067,0,5.5358,5.5487,5.5455,5.5541,5.5683,5.5643,5.5785,5.5793,5.5824,5.591,5.5845,5.5927,5.5889,5.5969,5.5949,5.6083,5.6103,5.6098,5.6091,5.6101,5.6101,5.6124,5.6105,5.6077,5.6075,5.6073,5.6072,0,5.5639,5.5623,5.577,5.5792,5.5801,5.5904,5.5923,5.6003,5.5997,5.6106,5.613,5.6121,5.621,5.6191,5.629,5.6276,5.6442,5.6418,5.6428,5.6419,5.6534,5.6522,5.6921,5.6969,5.6622,5.6625,5.6628,0,5.5818,5.5915,5.5948,5.6,5.6023,5.6109,5.6157,5.6122,5.6175,5.6228,5.6302,5.6385,5.6449,5.6596,5.6598,5.6672,5.6645,5.678,5.6655,5.6661,5.664,5.6632,5.6639,5.6803,5.6807,5.681,5.6813,0,5.6137,5.6124,5.6196,5.6265,5.6325,5.6378,5.6425,5.6472,5.6441,5.6504,5.6593,5.6643,5.6743,5.6825,5.6893,5.6912,5.6856,5.6852,5.6882,5.689,5.689,5.6886,5.6489,5.6842,5.6839,5.6837,5.6835,5.6834,5.6368,5.6449,5.6483,5.6565,5.6597,5.6642,5.6717,5.672,5.6794,5.6871,5.6847,5.6948,5.6985,5.7071,5.7098,5.7175,5.7124,5.7169,5.7179,5.7189,5.72,5.6882,5.7189,5.7188,5.7187,5.7186,5.7186,0,5.6678,5.6696,5.6772,5.6839,5.6903,5.6847,5.6895,5.6952,5.7042,5.7081,5.7145,5.7246,5.7325,5.7334,5.7408,5.7469,5.7445,5.7489,5.7481,5.7485,5.7245,5.7209,5.7506,5.7506,5.7506,5.7506,5.7506,5.7506,5.6846,5.6978,5.6969,5.7116,5.7133,5.723,5.7262,5.7303,5.7333,5.7449,5.7514,5.7519,5.7545,5.762,5.7689,5.769,5.7718,5.7771,5.7761,5.7535,5.7503,5.7472,5.7437,5.7778,5.7779,5.7994,5.7996,5.7997]},{"header":{"parameterUnit":"m.s-1","parameterCategory":1,"la1":30.2991,"la2":30.254,"lo1":-89.0895,"lo2":-89.0444,"dy":0.0017,"dx":0.0017,"nx":28,"ny":28,"refTime":"2025-06-08T21:00:00:Z","depth":0,"parameterNumber":3,"parameterNumberName":"V-component_of_WINDS"},"data":[0,0,0,0,0,0,0,0,0,0,0,0,0,0,0,0,0,0,0,0,0,0,0,0,0,0,0,0,0,0,0,0,0,0,0,0,0,0,0,0,0,0,0,0,0,0,0,0,0,0,0,0,0,0,0,0,0,0,1.7571,1.7571,0,1.7587,1.7587,1.7588,1.7518,1.7516,1.7514,1.7512,1.7532,1.7534,1.7536,0,0,0,0,0,0,0,0,0,0,0,0,0,1.7482,1.7484,1.7571,1.7571,1.7571,1.7587,1.7587,1.7588,1.7519,1.7516,1.7514,1.7511,1.7531,1.7534,1.7537,0,0,0,0,0,0,0,0,0,0,0,0,0,1.7512,1.7485,1.7571,1.7539,1.7536,1.7587,1.7587,1.7588,1.7519,1.7516,1.7513,1.751,1.753,1.7533,1.7537,1.7621,0,0,1.7548,1.755,0,0,0,0,0,0,0,0,1.751,1.7515,1.7543,1.7541,1.7538,1.7547,1.7563,1.7599,1.752,1.7526,1.7512,1.7509,1.754,1.7542,1.7552,1.7621,1.7622,1.7548,1.7551,1.7552,1.7553,0,0,0,0,0,0,0,1.7508,1.7514,1.7577,1.7544,1.7541,1.7524,1.7525,1.7569,1.755,1.7525,1.752,1.7523,1.7537,1.7549,1.7552,1.7623,1.7548,1.7551,1.7554,1.7555,1.776,1.7763,0,0,0,0,0,0,1.751,1.7513,1.7577,1.7578,1.7516,1.7528,1.7529,1.7548,1.7549,1.7546,1.7525,1.7519,1.7544,1.7548,1.7552,1.7649,1.7552,1.7555,1.7558,1.7756,1.776,1.7764,0,0,0,0,0,0,1.7508,1.7516,1.7576,1.7544,1.755,1.7533,1.7554,1.755,1.756,1.7549,1.7545,1.754,1.7542,1.7547,1.7603,1.7649,1.7557,1.756,1.7753,1.7758,1.7762,1.7844,0,0,0,0,0,0,1.7506,1.7516,1.7548,1.7545,1.7552,1.7627,1.7557,1.7552,1.7567,1.7559,1.7562,1.756,1.754,1.7598,1.7607,1.7652,1.7563,1.7748,1.7755,1.7761,1.7838,1.7851,1.7863,0,0,0,0,0,1.7503,1.7571,1.755,1.7558,1.7591,1.763,1.7634,1.7609,1.7571,1.7602,1.7594,1.756,1.7643,1.7605,1.7614,1.7661,1.7746,1.7753,1.776,1.7832,1.7849,1.7863,0,0,0,0,0,0,1.7581,1.757,1.7546,1.7615,1.7624,1.7618,1.7657,1.7628,1.7648,1.764,1.7609,1.761,1.7672,1.7672,1.763,1.7741,1.7687,1.7697,1.7739,1.7755,1.7767,1.7766,1.7566,0,0,0,0,0,1.7606,1.7637,1.7627,1.7689,1.7694,1.7675,1.7691,1.7671,1.7679,1.7682,1.7679,1.7688,1.7716,1.7736,1.7761,1.7837,1.7836,1.7874,1.7887,1.7897,1.7906,1.7945,1.7961,1.7788,1.7788,1.7788,0,0,1.7658,1.7656,1.7678,1.7704,1.7708,1.7742,1.7679,1.7717,1.7742,1.7688,1.7741,1.7739,1.7747,1.7813,1.7842,1.7815,1.7953,1.7907,1.7915,1.7918,1.7954,1.7971,1.7985,1.7793,1.7792,1.7791,0,0,1.777,1.7773,1.7823,1.7829,1.7835,1.7822,1.7834,1.7832,1.7828,1.788,1.784,1.7869,1.7918,1.7926,1.7936,1.8049,1.8018,1.8058,1.8126,1.8164,1.8178,1.819,1.823,1.8244,1.8067,1.8067,1.8067,0,1.7835,1.7883,1.7854,1.7895,1.7907,1.7858,1.791,1.7916,1.7932,1.7941,1.791,1.797,1.7972,1.8039,1.8066,1.8077,1.8089,1.8058,1.8178,1.819,1.8201,1.8238,1.8253,1.8072,1.8072,1.8071,1.8071,0,1.7962,1.7996,1.8037,1.8051,1.8068,1.8114,1.8091,1.8112,1.809,1.808,1.8133,1.8134,1.8157,1.8172,1.8151,1.8235,1.8218,1.8184,1.8129,1.8222,1.8257,1.8271,1.8079,1.8077,1.8076,1.8075,0,0,1.8125,1.812,1.8135,1.814,1.8143,1.817,1.8213,1.8235,1.8253,1.8265,1.8301,1.8343,1.831,1.8322,1.8301,1.8335,1.8424,1.8296,1.8296,1.8319,1.8515,1.8541,1.8558,1.8402,1.8405,1.8407,1.8514,0,1.8234,1.8307,1.8281,1.8356,1.8387,1.834,1.8378,1.8384,1.8376,1.8401,1.8392,1.8421,1.8377,1.8383,1.8414,1.8406,1.8462,1.8398,1.8435,1.8437,1.8434,1.8576,1.8604,1.8704,1.8527,1.853,1.8531,0,1.8371,1.8387,1.8465,1.8461,1.8473,1.8507,1.8524,1.8549,1.8555,1.8546,1.8558,1.853,1.8573,1.8518,1.8576,1.8533,1.8546,1.8545,1.8548,1.855,1.849,1.8582,1.8736,1.8751,1.8552,1.8551,1.8549,0,1.8481,1.8521,1.8573,1.8579,1.8576,1.8601,1.8601,1.8603,1.8618,1.8633,1.8642,1.8663,1.8675,1.8691,1.8669,1.8632,1.873,1.8674,1.8724,1.8725,1.8747,1.8746,1.8905,1.8757,1.8757,1.8756,1.8756,0,1.8605,1.8655,1.8622,1.8653,1.8707,1.8676,1.873,1.8725,1.8728,1.8758,1.8719,1.8748,1.8718,1.8744,1.8728,1.8777,1.8783,1.8777,1.8772,1.878,1.8781,1.8789,1.8781,1.876,1.8759,1.8759,1.8758,0,1.8737,1.8717,1.8769,1.8762,1.8761,1.8801,1.8794,1.8823,1.8811,1.8849,1.8857,1.8838,1.8867,1.8847,1.8876,1.8865,1.893,1.8915,1.8928,1.8924,1.8974,1.897,1.9144,1.9165,1.9004,1.9005,1.9007,0,1.8817,1.8854,1.8849,1.8866,1.8868,1.8896,1.891,1.8881,1.8897,1.8906,1.8934,1.8959,1.8977,1.9025,1.9015,1.9036,1.9022,1.9081,1.9025,1.9031,1.9022,1.902,1.9023,1.9093,1.9095,1.9096,1.9097,0,1.8962,1.895,1.8971,1.8989,1.9006,1.9019,1.9029,1.9045,1.9016,1.9036,1.9064,1.9078,1.9107,1.9132,1.9149,1.915,1.9119,1.9115,1.9128,1.9136,1.9142,1.9139,1.8958,1.9111,1.911,1.9109,1.9108,1.9108,1.907,1.91,1.9101,1.9125,1.9129,1.9139,1.9165,1.9156,1.9178,1.9199,1.9181,1.9214,1.9218,1.9238,1.9242,1.9268,1.9243,1.9262,1.9266,1.9271,1.9278,1.9138,1.9271,1.9271,1.927,1.927,1.9269,0,1.9212,1.921,1.9233,1.9247,1.9266,1.9234,1.9243,1.9261,1.9291,1.9296,1.9315,1.9347,1.937,1.9361,1.9382,1.9405,1.9391,1.9411,1.9409,1.941,1.9299,1.9286,1.9422,1.9422,1.9422,1.9422,1.9422,1.9422,1.9288,1.9336,1.9324,1.9373,1.9371,1.9403,1.941,1.9419,1.9423,1.946,1.9479,1.9472,1.9472,1.9492,1.9513,1.9509,1.9519,1.9544,1.9536,1.9433,1.9418,1.9403,1.939,1.9546,1.9547,1.9644,1.9645,1.9645]}]]